Flag for Germany Weather past 2 weeks in Meissen, Saxony, Germany

Now
54 °F

Broken clouds.


Feels Like: 53 °F
Forecast: 51 / 63 °F
Wind: 3 mph from North

Location: Dresden-Klotzsche

Current Time: Aug 23, 2014 at 8:18:30 PM

Latest Report: Aug 23, 2014 at 7:50 PM


Visibility: N/A

Pressure: 29.92 "Hg

Humidity: 94%

Dew point: 52 °F

Location of MeissenLocation

Historic Weather in Meissen — Graph

°F

Meissen temperature yesterday

Maximum temperature yesterday: 70 °F (at 1:20 PM)
Minimum temperature yesterday: 48 °F (at 3:50 AM)
Average temperature yesterday: 59 °F

Past Weeks' High & Low Weather Summary

 TemperatureHumidityPressure
High84 °F (Aug 10, 4:20 PM)94% (Aug 13, 9:20 PM)30.01 "Hg (Aug 13, 9:20 PM)
Low48 °F (Aug 22, 3:50 AM)33% (Aug 12, 3:20 PM)29.65 "Hg (Aug 13, 6:50 PM)
Average63 °F66%29.89 "Hg
* Reported Aug 8 7:20 PM — Aug 23 7:20 PM, Meissen, Weather by CustomWeather, © 2014

Note: Actual official high and low records may vary slightly from our data, if they occured in-between our weather recording intervals... More about our weather records

Advertising

Meissen weather history for previous 24 hours

 ConditionsComfort  
Time TempWeatherWind HumidityBarometerVisibility
7:20 PM
Aug 23
55 °FThundershowers. Broken clouds.2 mph88%29.92 "HgN/A
6:50 PM57 °FThundershowers. Broken clouds.23 mph77%29.95 "Hg5 mi
6:20 PM61 °FScattered showers. Partly sunny.1 mph72%29.89 "HgN/A
5:50 PM61 °FPartly sunny.1 mph68%29.89 "HgN/A
5:20 PM61 °FScattered showers. Broken clouds.5 mph72%29.92 "HgN/A
4:50 PM61 °FBroken clouds.7 mph68%29.92 "HgN/A
4:20 PM61 °FSprinkles. Broken clouds.10 mph68%29.92 "HgN/A
3:50 PM64 °FPartly sunny.9 mph56%29.92 "HgN/A
3:20 PM64 °FBroken clouds.5 mph56%29.92 "HgN/A
2:50 PM64 °FPartly sunny.6 mph56%29.92 "HgN/A
2:20 PM64 °FPartly sunny.7 mph52%29.92 "HgN/A
1:50 PM64 °FPartly sunny.7 mph52%29.92 "HgN/A
1:20 PM63 °FPartly sunny.6 mph59%29.92 "HgN/A
12:50 PM63 °FPartly sunny.7 mph59%29.92 "HgN/A
12:20 PM63 °FPartly sunny.10 mph56%29.92 "HgN/A
11:50 AM64 °FScattered clouds.6 mph56%29.92 "HgN/A
11:20 AM64 °FScattered clouds.7 mph52%29.92 "HgN/A
10:50 AM63 °FScattered clouds.5 mph52%29.92 "HgN/A
10:20 AM63 °FScattered clouds.7 mph56%29.92 "HgN/A
9:50 AM63 °FScattered clouds.6 mph59%29.92 "HgN/A
9:20 AM61 °FSunny.1 mph59%29.92 "Hg10 mi
8:50 AM59 °FSunny.2 mph63%29.92 "Hg10 mi
8:20 AM59 °FSunny.2 mph59%29.92 "Hg10 mi
7:50 AM57 °FSunny.3 mph67%29.92 "Hg10 mi
7:20 AM59 °FSunny.3 mph55%29.92 "Hg10 mi
6:50 AM59 °FClear.6 mph55%29.92 "Hg10 mi
6:20 AM57 °FClear.6 mph59%29.92 "Hg10 mi
5:50 AM57 °FClear.7 mph59%29.89 "Hg10 mi
5:20 AM57 °FClear.9 mph59%29.89 "Hg10 mi
4:50 AM57 °FClear.9 mph59%29.89 "Hg10 mi
4:20 AM55 °FClear.9 mph63%29.89 "Hg10 mi
3:50 AM57 °FClear.9 mph59%29.92 "Hg10 mi
3:20 AM57 °FClear.10 mph59%29.92 "Hg10 mi
2:50 AM55 °FClear.8 mph63%29.92 "Hg10 mi
2:20 AM55 °FClear.8 mph63%29.92 "Hg10 mi
1:50 AM55 °FClear.7 mph63%29.92 "Hg10 mi
1:20 AM55 °FClear.6 mph63%29.92 "Hg10 mi
12:50 AM57 °FClear.8 mph59%29.92 "Hg10 mi
12:20 AM57 °FClear.8 mph63%29.92 "Hg10 mi
11:50 PM
Aug 22
57 °FClear.8 mph63%29.92 "Hg10 mi
11:20 PM57 °FClear.7 mph63%29.92 "Hg10 mi
10:50 PM57 °FClear.7 mph63%29.92 "Hg10 mi
10:20 PM59 °FClear.6 mph59%29.92 "Hg10 mi
9:50 PM59 °FClear.7 mph55%29.92 "Hg10 mi
9:20 PM61 °FClear.6 mph52%29.92 "Hg10 mi
8:50 PM61 °FSunny.6 mph52%29.92 "Hg10 mi
8:20 PM61 °FSunny.5 mph52%29.92 "Hg10 mi
Weather by CustomWeather, © 2014

See weather overviewHow to use our weather pages